FW0019 Weather Reports


time (UTC)temp
C
wind
direction
speed
KPH
gust
KPH
rain 1hr
cm
rain 24hr
cm
rain mn
cm
humidity
%
barometer
mb
20230208174606 8 286 27.4 38.6 0.00 0.00 0.00 44 1025.8
20230208173055 8 281 30.6 38.6 0.00 0.00 0.00 43 1025.7
20230208171551 8 296 24.1 37.0 0.00 0.00 0.00 46 1025.7
20230208164548 7 281 22.5 32.2 0.00 0.00 0.00 41 1025.8
20230208163047 7 299 24.1 37.0 0.00 0.00 0.00 46 1025.8
20230208161543 7 281 22.5 33.8 0.00 0.00 0.00 48 1025.7
20230208154541 6 109 8.0 24.1 0.00 0.00 0.00 39 1025.4
20230208153043 5 107 3.2 12.9 0.00 0.00 0.00 39 1025.3
20230208151537 4 88 1.6 6.4 0.00 0.00 0.00 41 1025.1
20230208144531 5 315 11.3 17.7 0.00 0.00 0.00 44 1025.0
20230208143036 5 328 16.1 22.5 0.00 0.00 0.00 43 1024.8
20230208141528 4 314 16.1 22.5 0.00 0.00 0.00 45 1024.6
20230208134530 4 296 16.1 24.1 0.00 0.00 0.00 46 1024.5
20230208133039 4 305 16.1 20.9 0.00 0.00 0.00 46 1024.3
20230208131525 4 300 16.1 20.9 0.00 0.00 0.00 42 1024.2
20230208124522 4 310 14.5 19.3 0.00 0.00 0.00 42 1024.2
20230208123025 4 312 12.9 17.7 0.00 0.00 0.00 44 1024.1
20230208121519 4 289 16.1 22.5 0.00 0.00 0.00 48 1024.0
20230208114517 4 29 4.8 19.3 0.00 0.00 0.00 38 1024.0
20230208113016 4 49 4.8 17.7 0.00 0.00 0.00 39 1024.0
20230208111528 3 49 3.2 16.1 0.00 0.00 0.00 39 1024.2
20230208104511 3 89 3.2 16.1 0.00 0.00 0.00 40 1024.5
20230208103011 3 74 3.2 14.5 0.00 0.00 0.00 40 1024.7
20230208101507 3 72 3.2 14.5 0.00 0.00 0.00 40 1024.8
20230208094503 3 89 1.6 12.9 0.00 0.00 0.00 40 1025.0
20230208093003 3 80 1.6 12.9 0.00 0.00 0.00 39 1025.0
20230208091600 4 44 1.6 9.7 0.00 0.00 0.00 39 1025.1
20230208084559 4 74 4.8 19.3 0.00 0.00 0.00 39 1025.1
20230208083101 4 108 6.4 16.1 0.00 0.00 0.00 39 1025.2
20230208081551 4 77 4.8 16.1 0.00 0.00 0.00 40 1025.1
20230208074549 4 332 14.5 19.3 0.00 0.00 0.00 43 1025.4
20230208073055 4 327 14.5 22.5 0.00 0.00 0.00 45 1025.4
20230208071548 4 311 14.5 19.3 0.00 0.00 0.00 44 1025.4
20230208064602 4 318 11.3 17.7 0.00 0.00 0.00 45 1025.4
20230208063056 3 314 12.9 17.7 0.00 0.00 0.00 45 1025.3
20230208061557 3 321 14.5 20.9 0.00 0.00 0.00 45 1025.4
20230208054550 2 302 14.5 19.3 0.00 0.00 0.00 58 1025.2
20230208053048 3 307 12.9 22.5 0.00 0.00 0.00 53 1025.1
20230208051552 2 313 12.9 19.3 0.00 0.00 0.00 57 1025.0
20230208044545 3 340 12.9 17.7 0.00 0.00 0.00 47 1025.0
20230208043041 1 324 8.0 16.1 0.00 0.00 0.00 58 1024.8
20230208041538 0 290 9.7 16.1 0.00 0.00 0.00 63 1024.9
20230208034542 0 286 4.8 14.5 0.00 0.00 0.00 66 1024.9
20230208033033 1 286 1.6 4.8 0.00 0.00 0.00 65 1024.9
20230208031549 1 302 3.2 6.4 0.00 0.00 0.00 66 1024.9
20230208024526 2 298 0.0 4.8 0.00 0.00 0.00 54 1024.7
20230208023022 3 333 3.2 12.9 0.00 0.00 0.00 51 1024.8
20230208021530 3 289 1.6 4.8 0.00 0.00 0.00 51 1024.8
20230208014558 4 300 4.8 8.0 0.00 0.00 0.00 49 1024.7
20230208013112 5 326 3.2 8.0 0.00 0.00 0.00 46 1024.6
20230208011528 5 344 3.2 6.4 0.00 0.00 0.00 44 1024.5
20230208010027 6 317 6.4 8.0 0.00 0.00 0.00 45 1024.5
20230208004526 6 327 6.4 14.5 0.00 0.00 0.00 46 1024.5
20230208003039 7 273 9.7 17.7 0.00 0.00 0.00 46 1024.5
20230208001526 8 279 11.3 16.1 0.00 0.00 0.00 46 1024.6
20230208000025 9 273 14.5 19.3 0.00 0.00 0.00 45 1024.6
20230207234525 9 283 12.9 16.1 0.00 0.00 0.00 46 1024.7
20230207233025 10 296 12.9 19.3 0.00 0.00 0.00 42 1024.8
20230207231527 10 288 12.9 16.1 0.00 0.00 0.00 45 1025.0
20230207230027 9 284 12.9 16.1 0.00 0.00 0.00 40 1024.9
20230207224523 9 278 16.1 20.9 0.00 0.00 0.00 44 1024.9
20230207223022 9 294 12.9 25.7 0.00 0.00 0.00 42 1024.8
20230207221522 10 285 14.5 24.1 0.00 0.00 0.00 42 1024.7
20230207220024 9 296 16.1 27.4 0.00 0.00 0.00 40 1024.8
20230207214521 9 288 17.7 25.7 0.00 0.00 0.00 40 1024.9
20230207213036 10 283 17.7 29.0 0.00 0.00 0.00 44 1024.7
20230207211519 9 302 17.7 30.6 0.00 0.00 0.00 43 1024.9
20230207210024 9 269 19.3 29.0 0.00 0.00 0.00 43 1025.0
20230207204529 9 286 20.9 30.6 0.00 0.00 0.00 45 1025.2
20230207203019 9 275 20.9 32.2 0.00 0.00 0.00 43 1025.3
20230207201517 9 288 20.9 33.8 0.00 0.00 0.00 43 1025.4
20230207200015 8 269 27.4 33.8 0.00 0.00 0.00 47 1025.5
20230207194513 8 271 25.7 35.4 0.00 0.00 0.00 47 1025.7
20230207193011 8 284 22.5 32.2 0.00 0.00 0.00 48 1025.9
20230207191510 7 271 25.7 37.0 0.00 0.00 0.00 49 1026.1
20230207190010 8 298 19.3 25.7 0.00 0.00 0.00 46 1026.2
20230207184509 8 277 22.5 29.0 0.00 0.00 0.00 51 1026.4
20230207183007 7 294 22.5 27.4 0.00 0.00 0.00 49 1026.5
20230207181510 7 290 20.9 30.6 0.00 0.00 0.00 51 1026.4